| time (UTC) | temp F | wind direction | speed MPH | gust MPH | rain 1hr in | rain 24hr in | rain mn in | humidity % | barometer mb |
| 20260507183533 | 66 | 348 | 3.0 | 9.0 | 0.00 | 0.00 | 0.00 | 55 | 1018.5 |
| 20260507183059 | 66 | 349 | 2.0 | 9.0 | 0.00 | 0.00 | 0.00 | 55 | 1018.5 |
| 20260507182533 | 66 | 350 | 2.0 | 9.0 | 0.00 | 0.00 | 0.00 | 54 | 1018.5 |
| 20260507182033 | 66 | 349 | 3.0 | 9.0 | 0.00 | 0.00 | 0.00 | 54 | 1018.5 |
| 20260507181546 | 66 | 348 | 2.0 | 8.0 | 0.00 | 0.00 | 0.00 | 54 | 1018.5 |
| 20260507181034 | 66 | 348 | 3.0 | 8.0 | 0.00 | 0.00 | 0.00 | 54 | 1018.5 |
| 20260507180533 | 66 | 349 | 3.0 | 6.0 | 0.00 | 0.00 | 0.00 | 53 | 1018.5 |
| 20260507180056 | 66 | 0 | 1.0 | 6.0 | 0.00 | 0.00 | 0.00 | 53 | 1018.5 |
| 20260507175533 | 66 | 350 | 2.0 | 6.0 | 0.00 | 0.00 | 0.00 | 53 | 1018.4 |
| 20260507175034 | 66 | 349 | 3.0 | 6.0 | 0.00 | 0.00 | 0.00 | 53 | 1018.4 |
| 20260507174549 | 66 | 348 | 2.0 | 5.0 | 0.00 | 0.00 | 0.00 | 53 | 1018.4 |
| 20260507174035 | 66 | 348 | 2.0 | 5.0 | 0.00 | 0.00 | 0.00 | 52 | 1018.3 |
| 20260507173533 | 66 | 349 | 1.0 | 5.0 | 0.00 | 0.00 | 0.00 | 53 | 1018.4 |
| 20260507173123 | 66 | 350 | 0.0 | 5.0 | 0.00 | 0.00 | 0.00 | 54 | 1018.5 |
| 20260507172533 | 66 | 350 | 0.0 | 5.0 | 0.00 | 0.00 | 0.00 | 53 | 1018.6 |
| 20260507172036 | 66 | 0 | 1.0 | 6.0 | 0.00 | 0.00 | 0.00 | 53 | 1018.5 |
| 20260507171548 | 66 | 0 | 2.0 | 9.0 | 0.00 | 0.00 | 0.00 | 52 | 1018.6 |
| 20260507171033 | 66 | 350 | 2.0 | 10.0 | 0.00 | 0.00 | 0.00 | 52 | 1018.4 |
| 20260507170535 | 66 | 348 | 4.0 | 11.0 | 0.00 | 0.00 | 0.00 | 52 | 1018.3 |
| 20260507170049 | 66 | 349 | 4.0 | 11.0 | 0.00 | 0.00 | 0.00 | 52 | 1018.0 |
| 20260507165534 | 67 | 349 | 5.0 | 11.0 | 0.00 | 0.00 | 0.00 | 53 | 1017.9 |
| 20260507165034 | 67 | 350 | 6.0 | 11.0 | 0.00 | 0.00 | 0.00 | 53 | 1017.8 |
| 20260507164553 | 66 | 350 | 4.0 | 11.0 | 0.00 | 0.00 | 0.00 | 53 | 1017.7 |
| 20260507164035 | 66 | 350 | 5.0 | 10.0 | 0.00 | 0.00 | 0.00 | 54 | 1017.8 |
| 20260507163533 | 66 | 348 | 4.0 | 12.0 | 0.00 | 0.00 | 0.00 | 55 | 1018.0 |
| 20260507163051 | 66 | 348 | 4.0 | 12.0 | 0.00 | 0.00 | 0.00 | 56 | 1018.2 |
| 20260507162533 | 66 | 350 | 7.0 | 11.0 | 0.00 | 0.00 | 0.00 | 56 | 1018.1 |
| 20260507162033 | 66 | 350 | 5.0 | 10.0 | 0.00 | 0.00 | 0.00 | 57 | 1018.2 |
| 20260507161605 | 67 | 349 | 6.0 | 11.0 | 0.00 | 0.00 | 0.00 | 57 | 1018.1 |
| 20260507161033 | 67 | 348 | 6.0 | 11.0 | 0.00 | 0.00 | 0.00 | 58 | 1018.2 |
| 20260507160534 | 67 | 349 | 5.0 | 12.0 | 0.00 | 0.00 | 0.00 | 58 | 1017.9 |
| 20260507155533 | 67 | 349 | 7.0 | 12.0 | 0.00 | 0.00 | 0.00 | 59 | 1018.1 |
| 20260507155034 | 67 | 349 | 5.0 | 14.0 | 0.00 | 0.00 | 0.00 | 59 | 1018.3 |
| 20260507154548 | 67 | 348 | 4.0 | 14.0 | 0.00 | 0.00 | 0.00 | 59 | 1018.2 |
| 20260507154034 | 67 | 349 | 5.0 | 13.0 | 0.00 | 0.00 | 0.00 | 58 | 1018.4 |
| 20260507153533 | 68 | 349 | 6.0 | 13.0 | 0.00 | 0.00 | 0.00 | 59 | 1018.3 |
| 20260507153046 | 68 | 349 | 5.0 | 10.0 | 0.00 | 0.00 | 0.00 | 58 | 1018.4 |
| 20260507152533 | 68 | 349 | 6.0 | 12.0 | 0.00 | 0.00 | 0.00 | 59 | 1018.5 |
| 20260507152033 | 68 | 350 | 5.0 | 12.0 | 0.00 | 0.00 | 0.00 | 60 | 1018.5 |
| 20260507151544 | 68 | 348 | 6.0 | 12.0 | 0.00 | 0.00 | 0.00 | 59 | 1018.5 |
| 20260507151033 | 68 | 350 | 3.0 | 12.0 | 0.00 | 0.00 | 0.00 | 61 | 1018.4 |
| 20260507150536 | 68 | 350 | 5.0 | 12.0 | 0.00 | 0.00 | 0.00 | 61 | 1018.4 |
| 20260507150051 | 68 | 350 | 5.0 | 12.0 | 0.00 | 0.00 | 0.00 | 61 | 1018.4 |
| 20260507145533 | 68 | 349 | 7.0 | 12.0 | 0.00 | 0.00 | 0.00 | 60 | 1018.4 |
| 20260507145033 | 68 | 350 | 5.0 | 12.0 | 0.00 | 0.00 | 0.00 | 59 | 1018.4 |
| 20260507144557 | 68 | 349 | 6.0 | 12.0 | 0.00 | 0.00 | 0.00 | 59 | 1018.4 |
| 20260507144036 | 69 | 350 | 4.0 | 12.0 | 0.00 | 0.00 | 0.00 | 60 | 1018.5 |
| 20260507143533 | 69 | 348 | 7.0 | 13.0 | 0.00 | 0.00 | 0.00 | 59 | 1018.5 |
| 20260507143047 | 69 | 350 | 5.0 | 13.0 | 0.00 | 0.00 | 0.00 | 59 | 1018.4 |
| 20260507142535 | 69 | 348 | 8.0 | 13.0 | 0.00 | 0.00 | 0.00 | 59 | 1018.4 |
| 20260507142036 | 69 | 349 | 9.0 | 14.0 | 0.00 | 0.00 | 0.00 | 58 | 1018.4 |
| 20260507141554 | 69 | 348 | 9.0 | 14.0 | 0.00 | 0.00 | 0.00 | 58 | 1018.4 |
| 20260507141033 | 70 | 349 | 6.0 | 15.0 | 0.00 | 0.00 | 0.00 | 58 | 1018.4 |
| 20260507140535 | 69 | 348 | 6.0 | 15.0 | 0.00 | 0.00 | 0.00 | 56 | 1018.3 |
| 20260507140058 | 70 | 348 | 8.0 | 15.0 | 0.00 | 0.00 | 0.00 | 55 | 1018.1 |
| 20260507135535 | 70 | 349 | 8.0 | 17.0 | 0.00 | 0.00 | 0.00 | 55 | 1018.0 |
| 20260507135033 | 70 | 350 | 8.0 | 17.0 | 0.00 | 0.00 | 0.00 | 55 | 1018.1 |
| 20260507134602 | 70 | 349 | 8.0 | 15.0 | 0.00 | 0.00 | 0.00 | 53 | 1018.1 |
| 20260507134035 | 70 | 349 | 11.0 | 15.0 | 0.00 | 0.00 | 0.00 | 49 | 1017.9 |
| 20260507133536 | 70 | 349 | 9.0 | 16.0 | 0.00 | 0.00 | 0.00 | 46 | 1018.1 |
| 20260507133052 | 70 | 348 | 10.0 | 16.0 | 0.00 | 0.00 | 0.00 | 47 | 1018.0 |
| 20260507132533 | 70 | 349 | 8.0 | 16.0 | 0.00 | 0.00 | 0.00 | 51 | 1018.0 |
| 20260507132035 | 70 | 349 | 9.0 | 17.0 | 0.00 | 0.00 | 0.00 | 51 | 1018.0 |
| 20260507131556 | 70 | 351 | 9.0 | 17.0 | 0.00 | 0.00 | 0.00 | 54 | 1018.0 |
| 20260507131034 | 70 | 350 | 10.0 | 17.0 | 0.00 | 0.00 | 0.00 | 55 | 1018.1 |
| 20260507130534 | 70 | 349 | 7.0 | 15.0 | 0.00 | 0.00 | 0.00 | 59 | 1018.1 |
| 20260507130050 | 70 | 350 | 8.0 | 15.0 | 0.00 | 0.00 | 0.00 | 59 | 1018.1 |
| 20260507125535 | 70 | 349 | 9.0 | 15.0 | 0.00 | 0.00 | 0.00 | 61 | 1018.1 |
| 20260507125036 | 70 | 349 | 9.0 | 15.0 | 0.00 | 0.00 | 0.00 | 64 | 1018.2 |
| 20260507124554 | 70 | 348 | 8.0 | 15.0 | 0.00 | 0.00 | 0.00 | 67 | 1018.6 |
| 20260507124035 | 70 | 349 | 8.0 | 15.0 | 0.00 | 0.00 | 0.00 | 67 | 1018.6 |
| 20260507123535 | 70 | 349 | 7.0 | 14.0 | 0.00 | 0.00 | 0.00 | 69 | 1018.5 |
| 20260507123051 | 69 | 348 | 4.0 | 12.0 | 0.00 | 0.00 | 0.00 | 70 | 1018.5 |
| 20260507122533 | 69 | 349 | 5.0 | 13.0 | 0.00 | 0.00 | 0.00 | 68 | 1018.5 |
| 20260507122035 | 69 | 349 | 6.0 | 13.0 | 0.00 | 0.00 | 0.00 | 68 | 1018.6 |
| 20260507121552 | 69 | 348 | 6.0 | 13.0 | 0.00 | 0.00 | 0.00 | 68 | 1018.7 |
| 20260507121032 | 69 | 350 | 5.0 | 12.0 | 0.00 | 0.00 | 0.00 | 69 | 1018.6 |
| 20260507120535 | 69 | 349 | 6.0 | 14.0 | 0.00 | 0.00 | 0.00 | 68 | 1018.6 |
| 20260507120051 | 69 | 349 | 5.0 | 14.0 | 0.00 | 0.00 | 0.00 | 68 | 1018.7 |
| 20260507115536 | 69 | 350 | 3.0 | 12.0 | 0.00 | 0.00 | 0.00 | 68 | 1018.5 |
| 20260507115033 | 69 | 350 | 8.0 | 13.0 | 0.00 | 0.00 | 0.00 | 65 | 1018.6 |
| 20260507114555 | 70 | 350 | 7.0 | 13.0 | 0.00 | 0.00 | 0.00 | 64 | 1018.8 |
| 20260507114035 | 71 | 350 | 5.0 | 12.0 | 0.00 | 0.00 | 0.00 | 63 | 1018.8 |
| 20260507113534 | 71 | 348 | 5.0 | 14.0 | 0.00 | 0.00 | 0.00 | 62 | 1018.8 |
| 20260507113050 | 71 | 349 | 6.0 | 14.0 | 0.00 | 0.00 | 0.00 | 63 | 1018.8 |
| 20260507112533 | 71 | 349 | 7.0 | 13.0 | 0.00 | 0.00 | 0.00 | 62 | 1018.9 |
| 20260507112033 | 71 | 349 | 5.0 | 11.0 | 0.00 | 0.00 | 0.00 | 60 | 1019.1 |
| 20260507111559 | 70 | 350 | 5.0 | 11.0 | 0.00 | 0.00 | 0.00 | 63 | 1019.0 |
| 20260507111033 | 69 | 351 | 3.0 | 10.0 | 0.00 | 0.00 | 0.00 | 67 | 1018.9 |
| 20260507110533 | 69 | 350 | 4.0 | 10.0 | 0.00 | 0.00 | 0.00 | 68 | 1018.8 |
| 20260507110046 | 69 | 350 | 5.0 | 12.0 | 0.00 | 0.00 | 0.00 | 68 | 1018.9 |
| 20260507105533 | 70 | 350 | 4.0 | 12.0 | 0.00 | 0.00 | 0.00 | 67 | 1018.9 |
| 20260507105033 | 70 | 350 | 5.0 | 15.0 | 0.00 | 0.00 | 0.00 | 63 | 1018.9 |
| 20260507104554 | 70 | 350 | 8.0 | 15.0 | 0.00 | 0.00 | 0.00 | 62 | 1018.8 |
| 20260507104034 | 70 | 348 | 8.0 | 13.0 | 0.00 | 0.00 | 0.00 | 63 | 1018.7 |
| 20260507103534 | 70 | 350 | 5.0 | 11.0 | 0.00 | 0.00 | 0.00 | 65 | 1018.6 |
| 20260507103048 | 70 | 350 | 6.0 | 10.0 | 0.00 | 0.00 | 0.00 | 66 | 1018.3 |
| 20260507102533 | 71 | 348 | 6.0 | 10.0 | 0.00 | 0.00 | 0.00 | 67 | 1018.3 |
| 20260507102033 | 71 | 350 | 5.0 | 9.0 | 0.00 | 0.00 | 0.00 | 66 | 1018.3 |
| 20260507101601 | 71 | 350 | 3.0 | 11.0 | 0.00 | 0.00 | 0.00 | 66 | 1018.4 |
| 20260507101034 | 70 | 349 | 3.0 | 11.0 | 0.00 | 0.00 | 0.00 | 68 | 1018.3 |
| 20260507100534 | 69 | 350 | 6.0 | 11.0 | 0.00 | 0.00 | 0.00 | 69 | 1018.4 |
| 20260507100051 | 69 | 350 | 6.0 | 13.0 | 0.00 | 0.00 | 0.00 | 67 | 1018.5 |
| 20260507095535 | 71 | 350 | 7.0 | 13.0 | 0.00 | 0.00 | 0.00 | 65 | 1018.6 |
| 20260507095034 | 71 | 350 | 7.0 | 13.0 | 0.00 | 0.00 | 0.00 | 64 | 1018.5 |
| 20260507094550 | 71 | 350 | 7.0 | 13.0 | 0.00 | 0.00 | 0.00 | 63 | 1018.5 |
| 20260507094033 | 71 | 350 | 6.0 | 13.0 | 0.00 | 0.00 | 0.00 | 62 | 1018.3 |
| 20260507093533 | 72 | 347 | 7.0 | 11.0 | 0.00 | 0.00 | 0.00 | 61 | 1018.3 |
| 20260507093047 | 71 | 350 | 6.0 | 11.0 | 0.00 | 0.00 | 0.00 | 62 | 1018.3 |
| 20260507092533 | 71 | 351 | 5.0 | 10.0 | 0.00 | 0.00 | 0.00 | 64 | 1018.4 |
| 20260507092033 | 71 | 350 | 5.0 | 10.0 | 0.00 | 0.00 | 0.00 | 63 | 1018.4 |
| 20260507091543 | 71 | 350 | 5.0 | 10.0 | 0.00 | 0.00 | 0.00 | 61 | 1018.3 |
| 20260507091033 | 71 | 349 | 4.0 | 10.0 | 0.00 | 0.00 | 0.00 | 63 | 1018.3 |
| 20260507090534 | 71 | 350 | 2.0 | 10.0 | 0.00 | 0.00 | 0.00 | 66 | 1018.3 |
| 20260507090049 | 70 | 350 | 4.0 | 10.0 | 0.00 | 0.00 | 0.00 | 67 | 1018.3 |
| 20260507085533 | 70 | 347 | 4.0 | 9.0 | 0.00 | 0.00 | 0.00 | 70 | 1018.3 |
| 20260507085034 | 69 | 349 | 2.0 | 9.0 | 0.00 | 0.00 | 0.00 | 71 | 1018.4 |
| 20260507084548 | 69 | 349 | 4.0 | 10.0 | 0.00 | 0.00 | 0.00 | 70 | 1018.4 |
| 20260507084034 | 69 | 350 | 4.0 | 10.0 | 0.00 | 0.00 | 0.00 | 69 | 1018.4 |
| 20260507083535 | 69 | 350 | 6.0 | 10.0 | 0.00 | 0.00 | 0.00 | 69 | 1018.3 |
| 20260507083048 | 69 | 350 | 5.0 | 9.0 | 0.00 | 0.00 | 0.00 | 67 | 1018.2 |
| 20260507082532 | 69 | 351 | 4.0 | 10.0 | 0.00 | 0.00 | 0.00 | 67 | 1018.2 |
| 20260507082033 | 69 | 350 | 5.0 | 10.0 | 0.00 | 0.00 | 0.00 | 70 | 1018.1 |
| 20260507081549 | 69 | 351 | 5.0 | 9.0 | 0.00 | 0.00 | 0.00 | 69 | 1018.1 |
| 20260507081034 | 69 | 350 | 4.0 | 9.0 | 0.00 | 0.00 | 0.00 | 71 | 1018.1 |
| 20260507080536 | 68 | 351 | 3.0 | 9.0 | 0.00 | 0.00 | 0.00 | 72 | 1018.2 |
| 20260507080047 | 68 | 350 | 4.0 | 9.0 | 0.00 | 0.00 | 0.00 | 73 | 1018.1 |
| 20260507075533 | 68 | 351 | 4.0 | 9.0 | 0.00 | 0.00 | 0.00 | 73 | 1018.0 |
| 20260507075033 | 68 | 351 | 4.0 | 9.0 | 0.00 | 0.00 | 0.00 | 73 | 1017.9 |
| 20260507074550 | 68 | 350 | 2.0 | 9.0 | 0.00 | 0.00 | 0.00 | 73 | 1018.0 |
| 20260507074035 | 68 | 351 | 5.0 | 9.0 | 0.00 | 0.00 | 0.00 | 73 | 1017.9 |
| 20260507073533 | 68 | 351 | 4.0 | 8.0 | 0.00 | 0.00 | 0.00 | 72 | 1017.8 |
| 20260507073046 | 68 | 350 | 1.0 | 5.0 | 0.00 | 0.00 | 0.00 | 73 | 1017.8 |
| 20260507072534 | 68 | 351 | 1.0 | 6.0 | 0.00 | 0.00 | 0.00 | 74 | 1017.8 |
| 20260507072032 | 67 | 351 | 2.0 | 6.0 | 0.00 | 0.00 | 0.00 | 73 | 1017.8 |
| 20260507071551 | 67 | 351 | 1.0 | 6.0 | 0.00 | 0.00 | 0.00 | 73 | 1017.8 |
| 20260507071036 | 67 | 351 | 2.0 | 6.0 | 0.00 | 0.00 | 0.00 | 74 | 1018.0 |
| 20260507070533 | 66 | 350 | 3.0 | 6.0 | 0.00 | 0.00 | 0.00 | 74 | 1018.0 |
| 20260507070053 | 66 | 350 | 2.0 | 10.0 | 0.00 | 0.00 | 0.00 | 73 | 1018.1 |
| 20260507065532 | 66 | 350 | 4.0 | 11.0 | 0.00 | 0.00 | 0.00 | 74 | 1018.2 |
| 20260507065033 | 66 | 351 | 7.0 | 11.0 | 0.00 | 0.00 | 0.00 | 72 | 1018.1 |
| 20260507064606 | 66 | 351 | 7.0 | 11.0 | 0.00 | 0.00 | 0.00 | 70 | 1018.1 |
| 20260507064034 | 67 | 351 | 4.0 | 8.0 | 0.00 | 0.00 | 0.00 | 69 | 1018.1 |
| 20260507063533 | 66 | 350 | 3.0 | 8.0 | 0.00 | 0.00 | 0.00 | 67 | 1018.0 |
| 20260507063052 | 67 | 351 | 3.0 | 8.0 | 0.00 | 0.00 | 0.00 | 66 | 1018.0 |
| 20260507062533 | 67 | 351 | 2.0 | 5.0 | 0.00 | 0.00 | 0.00 | 67 | 1017.9 |
| 20260507062033 | 67 | 350 | 3.0 | 5.0 | 0.00 | 0.00 | 0.00 | 65 | 1018.0 |
| 20260507061547 | 67 | 351 | 1.0 | 9.0 | 0.00 | 0.00 | 0.00 | 67 | 1018.0 |
| 20260507061033 | 66 | 350 | 3.0 | 9.0 | 0.00 | 0.00 | 0.00 | 67 | 1018.0 |
| 20260507060533 | 66 | 350 | 3.0 | 8.0 | 0.00 | 0.00 | 0.00 | 66 | 1017.9 |
| 20260507060052 | 66 | 350 | 3.0 | 8.0 | 0.00 | 0.00 | 0.00 | 65 | 1017.9 |
| 20260507055533 | 67 | 351 | 2.0 | 5.0 | 0.00 | 0.00 | 0.00 | 64 | 1017.8 |
| 20260507055032 | 67 | 350 | 2.0 | 4.0 | 0.00 | 0.00 | 0.00 | 61 | 1017.8 |
| 20260507054545 | 67 | 351 | 2.0 | 4.0 | 0.00 | 0.00 | 0.00 | 60 | 1017.8 |
| 20260507054037 | 68 | 0 | 1.0 | 3.0 | 0.00 | 0.00 | 0.00 | 59 | 1017.6 |
| 20260507053533 | 68 | 0 | 0.0 | 4.0 | 0.00 | 0.00 | 0.00 | 57 | 1017.5 |
| 20260507053045 | 67 | 337 | 1.0 | 4.0 | 0.00 | 0.00 | 0.00 | 57 | 1017.4 |
| 20260507052534 | 66 | 344 | 1.0 | 4.0 | 0.00 | 0.00 | 0.00 | 59 | 1017.3 |
| 20260507052034 | 65 | 0 | 1.0 | 4.0 | 0.00 | 0.00 | 0.00 | 61 | 1017.1 |
| 20260507051542 | 64 | 340 | 0.0 | 4.0 | 0.00 | 0.00 | 0.00 | 65 | 1017.0 |
| 20260507051032 | 64 | 320 | 0.0 | 4.0 | 0.00 | 0.00 | 0.00 | 67 | 1017.0 |
| 20260507050532 | 63 | 321 | 1.0 | 4.0 | 0.00 | 0.00 | 0.00 | 70 | 1016.8 |
| 20260507050048 | 62 | 0 | 1.0 | 5.0 | 0.00 | 0.00 | 0.00 | 71 | 1016.8 |
| 20260507045535 | 62 | 352 | 2.0 | 5.0 | 0.00 | 0.00 | 0.00 | 74 | 1016.9 |
| 20260507045034 | 61 | 352 | 2.0 | 5.0 | 0.00 | 0.00 | 0.00 | 76 | 1016.9 |
| 20260507044548 | 60 | 355 | 2.0 | 5.0 | 0.00 | 0.00 | 0.00 | 77 | 1016.8 |
| 20260507044033 | 59 | 355 | 3.0 | 5.0 | 0.00 | 0.00 | 0.00 | 78 | 1016.8 |
| 20260507043533 | 59 | 355 | 2.0 | 5.0 | 0.00 | 0.00 | 0.00 | 78 | 1016.8 |
| 20260507043052 | 58 | 21 | 1.0 | 4.0 | 0.00 | 0.00 | 0.00 | 79 | 1016.8 |
| 20260507042533 | 58 | 29 | 2.0 | 4.0 | 0.00 | 0.00 | 0.00 | 81 | 1016.8 |
| 20260507042034 | 57 | 0 | 0.0 | 1.0 | 0.00 | 0.00 | 0.00 | 81 | 1016.9 |
| 20260507041600 | 56 | 0 | 0.0 | 5.0 | 0.00 | 0.00 | 0.00 | 81 | 1016.9 |
| 20260507041035 | 56 | 0 | 0.0 | 5.0 | 0.00 | 0.00 | 0.00 | 80 | 1017.0 |
| 20260507040534 | 56 | 333 | 2.0 | 5.0 | 0.00 | 0.00 | 0.00 | 80 | 1017.0 |
| 20260507040055 | 55 | 333 | 0.0 | 3.0 | 0.00 | 0.00 | 0.00 | 79 | 1017.0 |
| 20260507035533 | 55 | 0 | 0.0 | 3.0 | 0.00 | 0.00 | 0.00 | 79 | 1017.0 |
| 20260507035034 | 55 | 333 | 1.0 | 3.0 | 0.00 | 0.00 | 0.00 | 78 | 1017.1 |
| 20260507034549 | 55 | 333 | 0.0 | 0.0 | 0.00 | 0.00 | 0.00 | 78 | 1017.0 |
| 20260507034033 | 56 | 0 | 0.0 | 2.0 | 0.00 | 0.00 | 0.00 | 78 | 1016.9 |
| 20260507033536 | 56 | 0 | 0.0 | 2.0 | 0.00 | 0.00 | 0.00 | 78 | 1016.7 |
| 20260507033047 | 56 | 0 | 0.0 | 1.0 | 0.00 | 0.00 | 0.00 | 78 | 1016.7 |
| 20260507032533 | 56 | 0 | 0.0 | 4.0 | 0.00 | 0.00 | 0.00 | 78 | 1016.7 |
| 20260507032033 | 55 | 0 | 0.0 | 5.0 | 0.00 | 0.00 | 0.00 | 77 | 1016.7 |
| 20260507031550 | 55 | 333 | 2.0 | 7.0 | 0.00 | 0.00 | 0.00 | 78 | 1016.7 |
| 20260507031033 | 55 | 355 | 3.0 | 7.0 | 0.00 | 0.00 | 0.00 | 78 | 1016.7 |
| 20260507030532 | 55 | 355 | 4.0 | 6.0 | 0.00 | 0.00 | 0.00 | 79 | 1016.7 |
| 20260507030056 | 55 | 355 | 0.0 | 4.0 | 0.00 | 0.00 | 0.00 | 79 | 1016.6 |
| 20260507025532 | 55 | 0 | 0.0 | 0.0 | 0.00 | 0.00 | 0.00 | 79 | 1016.6 |
| 20260507025033 | 55 | 0 | 0.0 | 0.0 | 0.00 | 0.00 | 0.00 | 78 | 1016.6 |
| 20260507024548 | 55 | 0 | 0.0 | 0.0 | 0.00 | 0.00 | 0.00 | 78 | 1016.6 |
| 20260507024033 | 55 | 0 | 0.0 | 0.0 | 0.00 | 0.00 | 0.00 | 77 | 1016.8 |
| 20260507023533 | 56 | 0 | 0.0 | 0.0 | 0.00 | 0.00 | 0.00 | 76 | 1016.7 |
| 20260507023103 | 56 | 0 | 0.0 | 2.0 | 0.00 | 0.00 | 0.00 | 76 | 1016.8 |
| 20260507022533 | 56 | 0 | 0.0 | 4.0 | 0.00 | 0.00 | 0.00 | 77 | 1016.7 |
| 20260507022034 | 56 | 0 | 0.0 | 4.0 | 0.00 | 0.00 | 0.00 | 78 | 1016.7 |
| 20260507021552 | 56 | 347 | 0.0 | 3.0 | 0.00 | 0.00 | 0.00 | 78 | 1016.6 |
| 20260507021033 | 55 | 347 | 2.0 | 3.0 | 0.00 | 0.00 | 0.00 | 78 | 1016.6 |
| 20260507020533 | 55 | 0 | 0.0 | 1.0 | 0.00 | 0.00 | 0.00 | 78 | 1016.8 |
| 20260507020053 | 55 | 0 | 0.0 | 1.0 | 0.00 | 0.00 | 0.00 | 77 | 1016.7 |
| 20260507015532 | 56 | 0 | 0.0 | 3.0 | 0.00 | 0.00 | 0.00 | 77 | 1016.7 |
| 20260507015033 | 56 | 0 | 0.0 | 3.0 | 0.00 | 0.00 | 0.00 | 77 | 1016.6 |
| 20260507014601 | 56 | 0 | 1.0 | 3.0 | 0.00 | 0.00 | 0.00 | 77 | 1016.6 |
| 20260507014033 | 56 | 347 | 1.0 | 3.0 | 0.00 | 0.00 | 0.00 | 76 | 1016.6 |
| 20260507013533 | 56 | 347 | 0.0 | 3.0 | 0.00 | 0.00 | 0.00 | 75 | 1016.3 |
| 20260507013109 | 56 | 0 | 0.0 | 3.0 | 0.00 | 0.00 | 0.00 | 75 | 1016.5 |
| 20260507012535 | 56 | 352 | 0.0 | 3.0 | 0.00 | 0.00 | 0.00 | 75 | 1016.3 |
| 20260507012034 | 57 | 352 | 1.0 | 3.0 | 0.00 | 0.00 | 0.00 | 73 | 1016.2 |
| 20260507011548 | 57 | 352 | 1.0 | 3.0 | 0.00 | 0.00 | 0.00 | 73 | 1016.1 |
| 20260507011033 | 57 | 297 | 0.0 | 2.0 | 0.00 | 0.00 | 0.00 | 73 | 1015.9 |
| 20260507010533 | 58 | 0 | 0.0 | 2.0 | 0.00 | 0.00 | 0.00 | 73 | 1015.9 |
| 20260507010047 | 58 | 0 | 0.0 | 2.0 | 0.00 | 0.00 | 0.00 | 73 | 1015.8 |
| 20260507005534 | 57 | 297 | 0.0 | 2.0 | 0.00 | 0.00 | 0.00 | 73 | 1015.8 |
| 20260507005034 | 58 | 297 | 0.0 | 2.0 | 0.00 | 0.00 | 0.00 | 72 | 1015.9 |
| 20260507004545 | 58 | 0 | 0.0 | 4.0 | 0.00 | 0.00 | 0.00 | 72 | 1015.9 |
| 20260507004033 | 58 | 297 | 0.0 | 5.0 | 0.00 | 0.00 | 0.00 | 72 | 1015.8 |
| 20260507003534 | 58 | 298 | 3.0 | 5.0 | 0.00 | 0.00 | 0.00 | 73 | 1015.8 |
| 20260507003041 | 57 | 105 | 2.0 | 5.0 | 0.00 | 0.00 | 0.00 | 73 | 1015.7 |
| 20260507002533 | 57 | 14 | 3.0 | 5.0 | 0.00 | 0.00 | 0.00 | 74 | 1015.8 |
| 20260507002033 | 57 | 355 | 3.0 | 5.0 | 0.00 | 0.00 | 0.00 | 75 | 1015.9 |
| 20260507001608 | 57 | 318 | 2.0 | 3.0 | 0.00 | 0.00 | 0.00 | 74 | 1015.9 |
| 20260507001032 | 57 | 318 | 1.0 | 2.0 | 0.00 | 0.00 | 0.00 | 73 | 1016.0 |
| 20260507000535 | 57 | 318 | 1.0 | 2.0 | 0.00 | 0.00 | 0.00 | 72 | 1016.2 |
| 20260507000049 | 57 | 318 | 0.0 | 1.0 | 0.00 | 0.00 | 0.00 | 72 | 1016.2 |
| 20260506235535 | 57 | 0 | 0.0 | 1.0 | 0.00 | 0.00 | 0.00 | 71 | 1016.3 |
| 20260506235033 | 58 | 0 | 0.0 | 1.0 | 0.00 | 0.00 | 0.00 | 70 | 1016.3 |
| 20260506234548 | 58 | 0 | 0.0 | 0.0 | 0.00 | 0.00 | 0.00 | 69 | 1016.4 |
| 20260506234033 | 58 | 0 | 0.0 | 0.0 | 0.00 | 0.00 | 0.00 | 67 | 1016.3 |
| 20260506233533 | 59 | 0 | 0.0 | 1.0 | 0.00 | 0.00 | 0.00 | 67 | 1016.4 |
| 20260506233048 | 59 | 0 | 0.0 | 2.0 | 0.00 | 0.00 | 0.00 | 66 | 1016.4 |
| 20260506232533 | 59 | 0 | 0.0 | 2.0 | 0.00 | 0.00 | 0.00 | 65 | 1016.5 |
| 20260506232033 | 59 | 318 | 0.0 | 4.0 | 0.00 | 0.00 | 0.00 | 65 | 1016.4 |
| 20260506231549 | 59 | 318 | 1.0 | 4.0 | 0.00 | 0.00 | 0.00 | 65 | 1016.3 |
| 20260506231034 | 59 | 318 | 2.0 | 4.0 | 0.00 | 0.00 | 0.00 | 65 | 1016.4 |
| 20260506230534 | 59 | 319 | 1.0 | 4.0 | 0.00 | 0.00 | 0.00 | 66 | 1016.4 |
| 20260506230045 | 59 | 319 | 2.0 | 4.0 | 0.00 | 0.00 | 0.00 | 66 | 1016.4 |
| 20260506225534 | 59 | 319 | 1.0 | 2.0 | 0.00 | 0.00 | 0.00 | 65 | 1016.4 |
| 20260506225034 | 59 | 0 | 0.0 | 1.0 | 0.00 | 0.00 | 0.00 | 64 | 1016.5 |
| 20260506224549 | 60 | 0 | 0.0 | 2.0 | 0.00 | 0.00 | 0.00 | 64 | 1016.5 |
| 20260506224037 | 60 | 0 | 0.0 | 3.0 | 0.00 | 0.00 | 0.00 | 64 | 1016.6 |
| 20260506223533 | 60 | 319 | 1.0 | 5.0 | 0.00 | 0.00 | 0.00 | 63 | 1016.7 |
| 20260506223103 | 60 | 319 | 1.0 | 5.0 | 0.00 | 0.00 | 0.00 | 63 | 1016.7 |
| 20260506222535 | 60 | 355 | 2.0 | 5.0 | 0.00 | 0.00 | 0.00 | 63 | 1016.7 |
| 20260506222036 | 60 | 355 | 2.0 | 5.0 | 0.00 | 0.00 | 0.00 | 63 | 1016.7 |
| 20260506221549 | 60 | 316 | 2.0 | 4.0 | 0.00 | 0.00 | 0.00 | 64 | 1016.7 |
| 20260506221033 | 59 | 316 | 2.0 | 4.0 | 0.00 | 0.00 | 0.00 | 65 | 1016.8 |
| 20260506220533 | 59 | 316 | 1.0 | 4.0 | 0.00 | 0.00 | 0.00 | 66 | 1016.8 |
| 20260506220050 | 58 | 316 | 2.0 | 3.0 | 0.00 | 0.00 | 0.00 | 67 | 1016.8 |
| 20260506215533 | 58 | 316 | 1.0 | 3.0 | 0.00 | 0.00 | 0.00 | 68 | 1016.9 |
| 20260506215033 | 58 | 316 | 2.0 | 3.0 | 0.00 | 0.00 | 0.00 | 68 | 1016.9 |
| 20260506214547 | 58 | 316 | 0.0 | 2.0 | 0.00 | 0.00 | 0.00 | 67 | 1016.9 |
| 20260506214033 | 58 | 0 | 0.0 | 2.0 | 0.00 | 0.00 | 0.00 | 67 | 1016.9 |
| 20260506213534 | 58 | 316 | 0.0 | 1.0 | 0.00 | 0.00 | 0.00 | 67 | 1017.0 |
| 20260506213047 | 58 | 0 | 0.0 | 1.0 | 0.00 | 0.00 | 0.00 | 67 | 1017.0 |
| 20260506212533 | 58 | 316 | 0.0 | 1.0 | 0.00 | 0.00 | 0.00 | 66 | 1017.2 |
| 20260506212036 | 58 | 0 | 0.0 | 1.0 | 0.00 | 0.00 | 0.00 | 65 | 1017.1 |
| 20260506211555 | 58 | 0 | 0.0 | 0.0 | 0.00 | 0.00 | 0.00 | 64 | 1017.1 |
| 20260506211036 | 59 | 0 | 0.0 | 0.0 | 0.00 | 0.00 | 0.00 | 64 | 1017.2 |
| 20260506210536 | 59 | 0 | 0.0 | 1.0 | 0.00 | 0.00 | 0.00 | 63 | 1017.2 |
| 20260506210053 | 59 | 0 | 0.0 | 1.0 | 0.00 | 0.00 | 0.00 | 62 | 1017.3 |
| 20260506205536 | 59 | 0 | 0.0 | 1.0 | 0.00 | 0.00 | 0.00 | 62 | 1017.3 |
| 20260506205033 | 59 | 0 | 0.0 | 1.0 | 0.00 | 0.00 | 0.00 | 62 | 1017.2 |
| 20260506204548 | 59 | 0 | 0.0 | 1.0 | 0.00 | 0.00 | 0.00 | 62 | 1017.2 |
| 20260506204033 | 59 | 0 | 0.0 | 1.0 | 0.00 | 0.00 | 0.00 | 62 | 1017.1 |
| 20260506203534 | 60 | 0 | 0.0 | 1.0 | 0.00 | 0.00 | 0.00 | 62 | 1017.1 |
| 20260506203049 | 60 | 316 | 0.0 | 2.0 | 0.00 | 0.00 | 0.00 | 61 | 1017.2 |
| 20260506202533 | 60 | 0 | 0.0 | 2.0 | 0.00 | 0.00 | 0.00 | 61 | 1017.2 |
| 20260506202034 | 60 | 0 | 0.0 | 0.0 | 0.00 | 0.00 | 0.00 | 61 | 1017.2 |
| 20260506201554 | 60 | 0 | 0.0 | 0.0 | 0.00 | 0.00 | 0.00 | 60 | 1017.1 |
| 20260506201035 | 61 | 0 | 0.0 | 0.0 | 0.00 | 0.00 | 0.00 | 60 | 1017.1 |
| 20260506200534 | 61 | 0 | 0.0 | 0.0 | 0.00 | 0.00 | 0.00 | 59 | 1017.0 |
| 20260506200137 | 61 | 0 | 0.0 | 0.0 | 0.00 | 0.00 | 0.00 | 59 | 1017.1 |
| 20260506195534 | 61 | 0 | 0.0 | 0.0 | 0.00 | 0.00 | 0.00 | 59 | 1017.0 |
| 20260506195034 | 61 | 0 | 0.0 | 2.0 | 0.00 | 0.00 | 0.00 | 58 | 1016.9 |
| 20260506194600 | 61 | 0 | 0.0 | 2.0 | 0.00 | 0.00 | 0.00 | 57 | 1016.8 |
| 20260506194033 | 62 | 316 | 0.0 | 2.0 | 0.00 | 0.00 | 0.00 | 57 | 1016.8 |
| 20260506193535 | 62 | 0 | 0.0 | 1.0 | 0.00 | 0.00 | 0.00 | 57 | 1016.8 |
| 20260506193049 | 62 | 0 | 0.0 | 2.0 | 0.00 | 0.00 | 0.00 | 57 | 1016.7 |
| 20260506192533 | 62 | 316 | 0.0 | 2.0 | 0.00 | 0.00 | 0.00 | 56 | 1016.6 |
| 20260506192035 | 62 | 0 | 0.0 | 1.0 | 0.00 | 0.00 | 0.00 | 56 | 1016.6 |
| 20260506191549 | 62 | 0 | 0.0 | 3.0 | 0.00 | 0.00 | 0.00 | 55 | 1016.5 |
| 20260506191034 | 62 | 0 | 1.0 | 3.0 | 0.00 | 0.00 | 0.00 | 54 | 1016.5 |
| 20260506190534 | 62 | 316 | 1.0 | 3.0 | 0.00 | 0.00 | 0.00 | 54 | 1016.5 |
| 20260506190046 | 62 | 316 | 2.0 | 3.0 | 0.00 | 0.00 | 0.00 | 54 | 1016.5 |
| 20260506185533 | 63 | 316 | 0.0 | 2.0 | 0.00 | 0.00 | 0.00 | 55 | 1016.4 |
| 20260506185034 | 63 | 0 | 0.0 | 2.0 | 0.00 | 0.00 | 0.00 | 55 | 1016.4 |
| 20260506184553 | 63 | 316 | 0.0 | 2.0 | 0.00 | 0.00 | 0.00 | 55 | 1016.3 |
| 20260506184033 | 64 | 316 | 0.0 | 2.0 | 0.00 | 0.00 | 0.00 | 54 | 1016.3 |